Location: Schommer Observatory
(40.5200°N, 74.4500°W)
Time: 10:30:33
(UTC-04:00)

DOVE 4 - Visible Passes

Search period start: 20 October 2018 00:00
Search period end: 30 October 2018 00:00
Orbit: 589 x 802 km, 97.7° (Epoch: 20 October)

Date Brightness Start Highest point End Pass type
(mag) Time Alt. Az. Time Alt. Az. Time Alt. Az.
20 Oct ? 04:11:20 10° NNE 04:15:55 39° E 04:15:55 39° E visible
20 Oct ? 05:49:21 10° NNW 05:53:42 26° WNW 05:54:39 25° W visible
21 Oct ? 03:17:18 10° ENE 03:18:11 11° E 03:18:11 11° E visible
21 Oct ? 04:51:49 10° N 04:56:55 81° NNW 04:56:55 81° NNW visible
21 Oct ? 06:32:10 10° NW 06:33:54 12° WNW 06:35:38 10° WNW visible
22 Oct ? 03:55:34 10° NE 03:59:11 27° ENE 03:59:11 27° ENE visible
22 Oct ? 05:32:56 10° N 05:37:44 36° WNW 05:37:55 36° WNW visible
23 Oct ? 04:35:46 10° NNE 04:40:10 57° NE 04:40:10 57° NE visible
23 Oct ? 06:14:56 10° NNW 06:18:02 16° WNW 06:18:54 15° WNW visible
24 Oct ? 03:40:01 10° NE 03:42:26 18° ENE 03:42:26 18° ENE visible
24 Oct ? 05:16:38 10° N 05:21:09 47° NW 05:21:09 47° NW visible
25 Oct ? 04:19:47 10° NNE 04:23:25 38° NE 04:23:25 38° NE visible
25 Oct ? 05:58:13 10° NNW 06:02:07 22° WNW 06:02:09 22° WNW visible
26 Oct ? 03:24:52 10° ENE 03:25:40 12° ENE 03:25:40 12° ENE visible
26 Oct ? 05:00:26 10° N 05:04:24 50° NNW 05:04:24 50° NNW visible
27 Oct ? 04:03:57 10° NNE 04:06:38 25° NE 04:06:38 25° NE visible
27 Oct ? 05:41:43 10° N 05:45:22 28° NW 05:45:22 28° NW visible
28 Oct ? 04:44:20 10° NNE 04:47:37 40° NNE 04:47:37 40° NNE visible
28 Oct ? 06:24:12 10° NW 06:26:21 13° WNW 06:26:21 13° WNW visible
29 Oct ? 03:48:16 10° NE 03:49:52 17° NE 03:49:52 17° NE visible
29 Oct ? 05:25:21 10° N 05:28:35 31° NNW 05:28:35 31° NNW visible
